Theta_e
298 298 298 298 298 297 297 298 298 298 299 299 300 300 301 301 301 301 300 299 298 297 298 298 299 299 299 299 299 299 300 300 301 301 301 301 301 301 301 300 299 298 296 294 294 294 294 294 294 295 295 295 296 296 296 296 296 296 296 296 295 295 295 295 293 293 293 293 292 292 291 291 291 290 290 291 291 291 291 291 291 291 290 291 291
296 296 296 297 297 298 298 297 297 298 298 298 298 298 299 300 301 301 301 300 299 298 296 297 297 298 299 299 299 299 299 299 299 300 300 301 301 301 301 301 300 299 297 295 294 294 294 294 294 294 295 295 295 295 296 296 296 296 296 295 295 295 295 295 294 294 293 292 292 292 291 291 290 290 290 290 290 290 290 290 290 290 290 291 291
294 294 295 295 295 296 297 298 298 298 298 297 297 297 297 298 299 299 300 300 300 299 298 297 296 297 297 298 298 298 298 298 299 299 299 300 300 301 301 301 301 300 299 297 295 294 293 293 293 294 294 294 295 295 295 295 295 296 295 295 295 295 295 295 294 294 293 292 292 291 291 290 290 289 289 290 290 289 290 290 290 290 290 291 291
292 292 293 293 293 294 294 296 297 297 298 297 297 296 296 296 297 298 299 299 299 299 299 298 297 296 296 296 297 297 298 298 298 298 299 299 299 300 300 301 301 301 300 299 297 295 294 293 293 293 293 294 294 294 295 295 295 295 295 295 295 295 295 295 294 294 293 292 292 291 291 290 289 289 289 289 289 289 289 289 289 290 290 290 290
291 291 291 291 292 293 293 293 294 295 296 296 296 296 296 295 295 296 297 298 298 298 298 298 298 297 297 296 296 296 296 297 297 297 298 298 299 299 300 300 300 300 300 300 299 298 296 294 293 293 293 293 294 294 294 294 295 295 295 295 295 295 295 295 294 294 293 293 292 291 290 289 289 289 289 289 289 289 289 289 289 289 290 290 290
290 290 289 290 290 290 291 292 292 292 292 293 294 295 295 295 295 295 295 295 296 297 297 297 298 298 297 297 296 296 295 296 296 296 297 297 298 298 298 299 300 300 300 300 299 299 298 297 295 293 292 293 293 294 294 294 294 295 295 295 295 295 294 294 294 294 293 292 292 291 290 289 289 288 288 288 288 288 288 288 289 289 289 289 289
289 289 289 288 288 288 289 289 290 290 290 290 291 292 292 293 294 294 294 294 294 295 296 297 297 297 296 296 296 295 295 295 295 295 296 296 296 297 297 298 299 299 299 300 299 298 298 298 297 295 293 293 293 293 293 294 294 294 294 294 294 294 294 294 294 293 293 292 291 290 290 289 288 288 288 288 288 288 288 288 289 289 289 290 290
288 288 288 288 288 288 287 287 287 288 288 289 289 290 290 291 292 293 293 294 294 294 294 295 296 296 296 295 295 295 294 294 294 294 294 295 295 296 296 297 297 298 298 299 299 298 298 298 298 297 296 294 293 293 293 293 293 294 294 294 294 294 294 293 293 293 292 292 291 290 289 289 288 288 288 287 287 288 288 289 289 289 289 290 290
288 287 287 287 287 287 287 287 287 287 287 287 288 288 289 289 289 290 291 292 293 293 294 294 294 295 295 295 295 294 293 293 293 293 293 294 294 294 295 295 296 296 297 297 297 297 298 298 298 297 296 295 293 292 292 292 293 293 294 294 294 294 293 293 293 293 292 291 291 290 289 289 288 288 288 288 288 288 289 289 289 289 290 290 290
287 287 287 287 287 287 287 287 287 287 286 286 287 287 287 288 288 288 288 289 290 291 292 293 293 294 294 294 294 294 294 293 293 292 292 292 293 293 294 294 295 295 296 296 297 297 297 297 298 297 296 294 292 291 291 291 291 292 293 294 294 294 293 293 293 293 292 292 291 291 290 290 289 289 289 288 288 289 289 289 289 290 290 290 290
286 286 286 286 286 286 286 286 286 286 286 286 286 286 286 286 287 287 287 287 288 288 289 291 292 293 293 293 293 293 294 294 293 291 291 291 292 292 292 293 293 294 295 295 296 297 297 297 297 297 296 294 293 291 290 290 290 291 292 293 293 294 294 294 293 293 292 292 292 292 291 291 290 290 289 288 288 288 289 289 289 290 290 290 289
286 286 286 286 286 286 286 286 286 286 286 286 286 286 286 286 286 286 286 286 286 287 287 288 289 290 292 293 293 293 293 293 292 291 291 291 291 291 291 292 292 293 294 294 295 295 296 296 296 296 296 295 293 291 290 289 289 290 291 291 292 293 293 293 293 293 293 292 292 292 292 291 291 290 290 289 288 288 289 289 289 289 290 290 289
287 287 286 286 286 286 286 286 286 286 286 286 286 286 286 286 286 286 286 286 286 286 286 286 286 287 289 291 292 293 294 293 292 291 291 290 290 290 291 291 291 292 293 293 294 294 295 296 296 296 295 294 293 292 291 289 288 289 289 290 291 292 292 292 292 292 292 292 292 292 292 292 291 291 290 289 289 289 289 289 289 289 290 289 287
287 287 286 286 286 286 286 286 286 286 286 286 286 286 286 286 286 286 286 286 286 286 285 285 285 285 286 287 289 291 293 293 292 292 291 290 290 290 290 290 290 291 292 292 293 293 294 294 295 295 295 294 293 292 291 289 288 288 288 289 290 290 291 291 290 290 290 290 290 290 291 290 290 290 290 289 289 289 289 289 289 289 289 288 286
286 286 286 286 285 285 285 285 285 285 285 286 286 286 286 286 286 286 286 286 286 286 286 286 285 285 285 285 286 288 291 292 293 292 291 290 289 289 289 290 290 290 290 291 291 292 292 293 293 294 294 294 293 293 291 290 289 288 288 288 289 289 290 290 290 289 288 288 287 287 288 288 288 289 289 288 288 288 288 288 288 288 287 286 285
285 285 285 285 285 285 285 285 285 285 285 285 285 285 285 286 286 286 286 286 286 286 286 286 285 285 285 285 285 286 287 290 292 292 291 290 289 289 289 289 289 289 290 290 290 291 291 291 292 292 292 292 292 292 292 291 289 288 288 288 288 289 289 289 289 288 287 286 286 286 287 287 287 287 288 288 288 287 287 287 287 287 287 285 285
284 284 284 284 284 284 284 284 285 285 285 285 285 285 285 285 285 285 285 286 286 286 286 286 285 285 285 285 285 285 286 287 289 292 292 290 289 288 288 288 289 289 289 290 290 290 290 291 291 291 291 292 291 290 290 290 288 288 288 288 288 288 289 288 288 287 286 285 285 286 286 286 286 287 287 287 287 286 287 287 287 287 285 284 284
284 284 284 284 284 284 284 284 284 284 284 285 285 285 285 285 285 285 285 285 285 286 286 285 285 285 285 285 285 285 285 285 286 289 292 291 289 288 288 288 288 288 289 289 289 290 290 290 290 290 290 291 290 289 289 289 288 287 287 287 287 288 288 288 287 286 285 284 285 285 284 284 285 287 287 286 286 285 286 286 286 285 284 284 283
283 283 283 283 283 283 283 284 284 284 284 284 284 284 284 285 285 285 285 285 285 285 285 285 285 285 285 285 285 284 285 285 285 286 289 291 291 288 287 287 288 288 288 288 289 289 289 289 289 289 289 290 290 289 288 288 288 287 286 286 286 287 288 287 287 286 285 285 285 284 283 284 286 286 286 285 284 285 285 285 284 284 283 283 283
281 281 282 282 283 283 283 283 283 284 284 284 284 284 284 284 285 285 284 285 285 285 285 285 285 285 285 285 285 284 284 285 285 285 286 290 291 290 288 287 287 288 288 288 288 288 289 289 289 288 288 288 288 288 287 287 287 286 286 286 286 287 287 287 286 286 286 286 285 284 284 286 286 286 285 284 284 285 286 285 284 283 282 282 282
280 280 281 281 282 282 283 283 283 283 283 283 283 283 284 284 284 284 284 284 284 284 284 284 284 284 285 284 284 284 284 284 285 285 285 287 290 291 289 287 287 287 287 288 288 288 288 288 288 288 288 288 288 287 286 286 286 286 285 286 286 286 286 286 286 286 286 286 285 285 286 287 287 286 285 284 285 286 286 284 282 282 281 281 282
279 279 279 280 281 281 281 281 281 281 282 281 281 281 282 282 282 283 283 283 284 284 284 284 284 284 284 284 284 284 284 284 284 285 285 286 288 291 291 289 287 287 287 287 287 288 288 288 288 288 288 287 287 287 286 285 285 285 285 285 285 285 285 285 285 285 285 285 285 285 287 288 287 285 284 284 285 285 283 282 281 280 280 280 281
278 278 278 278 279 278 278 278 278 278 278 277 277 277 279 280 280 281 281 282 282 283 283 283 283 283 284 284 284 284 284 284 284 284 284 285 287 289 291 290 288 286 287 287 287 287 288 287 287 288 287 287 287 287 286 285 284 284 284 284 284 284 284 284 284 285 285 285 285 286 287 287 286 285 284 284 284 283 282 281 280 279 279 279 280
277 277 277 277 277 276 275 275 274 274 274 274 273 274 275 276 276 277 278 279 280 280 282 282 282 282 283 284 284 284 284 284 284 284 284 284 285 288 290 291 289 287 286 287 287 287 287 287 287 287 287 287 287 286 286 285 284 284 284 283 283 283 283 283 283 284 284 285 286 287 287 286 285 285 284 284 283 282 281 280 279 279 279 279 279
276 276 276 275 275 274 273 273 272 271 271 270 270 271 272 272 273 274 275 276 277 278 279 280 280 280 281 283 283 284 284 284 284 284 284 284 285 286 289 290 289 288 287 287 287 287 287 287 287 287 287 287 286 286 285 285 284 284 283 283 283 283 283 283 283 283 285 286 286 286 285 285 284 284 284 283 282 281 280 279 278 278 278 278 279
274 274 274 273 272 271 270 269 269 268 268 268 268 268 269 269 270 270 271 272 273 274 275 276 277 277 279 281 282 283 283 283 284 284 284 284 284 286 288 290 290 289 287 286 287 287 286 287 287 287 287 286 285 285 284 284 284 284 283 283 283 283 282 282 283 284 285 286 286 285 284 284 284 283 283 282 281 280 279 278 277 277 277 278 278
272 272 271 270 269 267 266 266 266 266 265 266 266 266 266 266 267 268 268 269 270 271 272 273 275 276 277 279 280 281 282 282 283 284 284 284 284 285 287 289 290 289 287 286 286 287 286 287 287 286 286 286 285 284 284 284 284 284 283 283 283 283 282 282 283 284 286 286 285 284 283 284 283 282 281 281 280 279 277 277 276 276 277 277 277
269 269 268 266 265 265 264 263 264 263 264 264 264 264 264 265 265 266 266 267 268 269 271 272 274 276 277 278 279 280 280 281 283 284 284 284 284 285 286 288 289 289 287 286 286 286 286 286 286 286 285 284 283 283 283 283 283 283 283 283 283 283 282 282 283 284 285 284 283 283 283 283 282 281 281 280 279 277 276 276 276 276 276 277 277
266 265 264 263 263 263 262 262 263 263 263 263 263 263 263 264 264 265 265 266 267 268 269 271 272 273 275 277 278 279 279 280 281 283 283 283 284 284 285 287 288 288 287 286 285 285 286 285 285 285 284 283 282 282 282 282 283 283 283 282 283 283 282 282 283 283 283 282 282 282 283 282 281 280 280 279 277 276 276 276 276 276 276 277 276
264 263 262 262 262 262 262 262 262 262 262 263 263 263 263 263 264 264 265 265 266 267 269 270 271 272 274 275 277 279 279 280 280 281 282 283 283 283 285 287 287 287 287 285 285 285 285 285 285 285 284 283 282 282 282 282 282 283 282 282 282 282 281 281 281 282 282 282 282 282 281 280 280 280 279 278 277 276 276 275 275 276 276 277 276
263 262 262 262 262 262 262 262 262 262 262 262 263 263 263 263 263 264 264 265 266 267 268 269 271 272 273 274 276 277 278 279 280 280 281 282 282 283 284 285 286 286 286 285 284 285 285 285 284 284 284 284 283 282 282 282 282 282 281 281 281 281 280 280 280 281 282 282 281 280 280 280 279 279 278 277 276 276 276 275 275 276 276 276 276
261 261 261 261 261 261 261 262 262 262 262 262 262 263 263 263 263 264 264 265 266 267 268 270 272 273 274 275 276 277 278 278 280 281 281 281 282 282 282 283 284 285 285 284 284 284 284 284 284 284 284 284 283 282 281 282 282 282 281 280 280 280 279 280 280 281 282 281 280 279 279 279 278 277 277 276 276 276 276 276 276 276 276 276 276
261 261 261 261 261 261 261 261 261 262 262 262 262 263 263 263 263 264 264 265 266 267 268 270 271 272 273 274 276 277 278 279 280 280 281 282 282 282 282 282 283 285 285 284 284 284 284 284 284 284 284 284 283 282 281 281 282 282 281 280 280 280 280 280 281 281 281 280 279 279 279 278 277 276 276 276 276 276 276 276 276 276 276 275 275
261 261 261 261 261 261 261 261 261 261 262 262 262 262 263 263 263 263 264 264 265 265 266 267 269 271 272 273 274 275 277 278 280 281 282 282 282 282 282 282 282 284 284 284 284 284 284 283 283 283 283 283 282 281 281 281 281 282 281 281 281 280 280 281 281 281 280 279 279 278 278 277 277 277 277 276 276 276 275 275 276 276 275 275 275
262 262 262 262 261 261 261 261 261 261 262 262 262 262 262 263 263 263 263 264 264 265 265 266 268 269 271 272 273 273 275 277 279 280 282 283 283 282 282 282 282 283 284 284 284 284 283 283 283 282 282 282 281 281 281 281 281 281 281 281 281 280 281 281 281 280 280 280 279 278 277 277 277 277 277 276 276 275 275 276 275 275 275 275 275
262 262 262 262 262 261 261 261 261 261 262 262 262 262 262 263 263 263 264 264 264 265 266 267 268 269 270 272 273 274 275 277 278 280 281 283 283 283 282 282 282 283 283 284 284 283 283 283 283 282 281 281 281 281 281 281 280 281 281 281 281 281 281 281 281 280 280 279 278 277 277 277 276 276 276 276 276 276 275 275 275 275 275 275 275
262 262 262 262 262 261 261 261 261 262 262 262 262 263 263 263 264 264 264 265 265 266 266 267 268 269 270 271 274 276 276 277 278 279 281 282 283 283 282 282 282 282 283 283 284 283 283 283 283 282 281 281 282 282 281 281 280 280 280 281 281 281 281 281 281 280 279 278 277 276 276 276 276 276 276 276 276 275 275 275 275 275 275 275 275
263 262 263 262 262 261 261 262 262 262 262 262 263 263 263 264 264 264 264 265 265 266 266 266 267 268 269 271 274 276 277 277 278 279 280 282 283 283 282 282 282 282 282 283 284 283 283 282 282 282 281 281 282 282 281 281 280 280 280 280 281 281 281 281 280 280 279 278 277 276 275 275 275 275 275 275 275 275 275 275 275 275 275 274 274
262 263 263 263 262 262 262 262 262 262 262 263 263 263 263 263 264 264 265 265 265 266 266 267 268 269 271 272 274 276 277 278 278 279 280 281 283 283 282 282 282 282 282 283 283 283 283 282 281 281 281 281 281 281 281 280 280 279 280 280 280 280 280 280 279 279 278 277 276 275 275 276 276 275 275 275 275 275 275 274 274 274 274 274 274
262 263 263 264 264 263 263 263 263 263 263 264 264 264 264 264 264 264 265 265 265 266 267 268 269 270 272 273 274 276 277 278 278 279 279 281 282 283 282 282 282 282 282 282 283 283 283 281 281 281 281 281 281 281 281 280 280 280 280 280 280 280 280 279 279 278 278 277 276 276 276 275 275 275 274 274 274 274 274 274 274 274 274 274 274
263 263 264 264 264 264 264 264 264 264 265 265 265 265 265 265 265 265 265 265 266 266 267 268 269 271 272 274 275 276 277 278 278 278 279 280 281 282 282 282 282 282 282 282 282 282 282 281 281 281 281 280 280 281 281 280 280 280 280 279 279 280 279 278 278 278 277 276 275 275 275 275 274 274 274 274 274 274 274 274 274 274 273 273 273
264 264 264 264 264 264 264 264 264 265 265 266 266 266 266 266 266 266 266 266 266 267 268 269 270 272 273 274 275 276 277 277 278 278 278 279 280 281 282 282 282 281 281 282 282 282 281 281 281 281 280 280 281 281 281 281 280 280 279 279 279 279 278 278 277 277 276 275 275 275 274 274 274 274 274 274 273 273 273 273 273 273 273 273 273
264 264 264 264 265 265 265 265 264 265 266 267 267 267 267 267 268 268 267 267 268 268 269 270 271 272 273 275 275 276 276 277 278 278 279 279 280 281 282 282 281 281 281 281 282 282 281 281 281 280 280 280 281 281 281 281 281 280 279 279 278 278 278 277 276 276 275 275 274 274 274 274 274 273 273 273 273 273 273 273 272 272 272 272 272
265 264 265 265 265 266 266 266 265 265 266 267 268 269 268 268 269 269 269 269 269 270 270 271 272 272 273 274 275 275 276 276 277 278 279 279 279 280 281 281 281 281 281 281 281 281 281 281 281 280 280 280 281 281 281 281 281 280 280 279 278 278 277 277 276 275 275 274 274 274 274 274 273 273 273 273 273 273 272 272 272 272 272 272 272
265 265 265 265 266 266 266 267 266 266 267 268 269 269 269 269 270 270 270 270 271 271 271 272 272 273 274 274 275 275 275 276 276 277 278 279 279 280 280 281 281 281 281 281 281 281 280 280 280 280 280 280 280 281 280 280 280 279 279 278 278 277 277 276 276 275 275 274 274 274 274 274 273 273 273 272 272 272 272 272 271 271 271 271 271
266 265 265 265 266 266 267 267 267 268 268 268 269 269 270 270 270 271 271 271 272 272 272 273 273 273 274 274 274 275 275 276 276 277 278 279 279 279 280 280 280 280 280 280 280 280 280 280 280 280 280 280 280 280 280 279 278 277 277 277 277 276 276 275 275 274 274 274 274 274 273 273 273 273 272 272 272 272 271 271 271 271 271 271 271
267 266 266 266 266 267 267 268 268 268 268 268 269 269 270 270 271 271 271 272 272 272 273 273 273 274 274 274 275 275 275 276 276 277 278 278 279 279 279 280 280 280 280 280 280 280 280 279 279 279 280 280 280 279 279 278 277 276 275 275 275 275 274 274 274 274 274 273 273 273 273 273 272 272 272 272 271 271 271 271 271 270 270 270 270
267 267 267 267 267 267 268 268 268 268 269 269 269 269 269 270 271 271 272 272 272 272 273 273 273 274 274 274 275 275 275 276 276 277 277 278 278 279 279 279 279 279 279 279 279 279 279 279 279 279 279 279 279 278 277 276 275 274 274 273 273 274 274 274 273 273 273 273 273 273 272 272 272 272 272 272 271 271 271 270 270 270 270 269 269
267 268 268 268 268 268 268 268 268 268 269 269 269 269 269 270 270 271 271 272 272 272 272 273 273 273 273 274 274 275 275 276 276 277 277 277 278 278 278 278 278 278 278 278 278 278 278 277 278 278 278 278 277 276 275 274 273 273 273 273 273 273 273 273 273 273 273 273 273 272 272 272 272 272 271 271 271 270 270 270 269 269 269 269 269
268 268 268 268 268 268 268 268 269 269 269 269 269 269 269 269 270 270 271 271 272 272 272 272 272 272 273 273 273 274 274 275 276 276 276 277 277 277 277 277 277 277 277 277 277 276 276 276 276 276 276 275 275 274 273 273 273 273 273 273 273 273 273 273 273 273 273 272 272 272 272 272 271 271 271 271 270 270 270 269 269 269 268 268 267
269 269 268 268 269 269 269 269 269 269 269 269 269 269 269 270 270 270 270 271 271 272 272 272 272 272 272 272 273 273 274 274 275 275 276 276 276 276 276 276 276 276 276 276 275 275 275 275 274 274 274 273 273 273 272 273 273 273 273 273 273 273 272 272 272 272 272 272 272 272 272 271 271 271 271 270 270 269 269 269 268 268 267 267 267
Wind_Speed
30 30 30 30 30 30 31 31 31 30 29 28 27 26 26 25 25 25 24 23 23 25 27 29 30 32 33 35 36 37 38 39 40 42 46 49 50 51 52 53 54 54 55 57 58 58 58 58 57 55 53 51 50 49 46 44 41 40 38 36 34 32 29 27 27 26 25 26 26 25 27 28 27 25 23 21 19 17 14 12 10 8 8 8 10
28 28 28 28 28 28 29 30 30 31 31 31 30 30 28 28 27 27 27 26 25 25 26 28 29 30 31 33 35 37 39 40 41 43 45 47 49 49 50 51 53 55 56 57 58 59 60 60 59 57 56 54 53 52 50 47 45 43 41 39 37 35 31 29 29 29 27 26 27 27 28 30 28 27 25 23 21 19 17 15 12 10 10 10 10
27 26 26 27 27 28 28 28 28 29 30 30 31 31 30 29 28 28 28 27 27 26 26 26 28 30 31 33 34 36 38 40 42 44 45 47 48 49 48 49 51 54 56 58 59 60 60 61 61 60 58 57 56 55 53 50 48 46 44 42 40 37 34 31 31 30 28 27 28 28 30 31 30 29 27 25 23 21 19 16 13 12 11 11 11
28 26 26 25 25 26 27 27 27 28 28 28 29 30 30 30 29 29 29 28 27 26 26 26 27 28 31 33 34 36 38 40 42 44 45 47 48 49 48 49 50 51 54 56 58 59 61 62 62 62 61 60 59 58 56 53 51 49 47 44 42 39 36 34 33 32 30 29 28 29 30 31 30 29 27 25 23 21 19 17 15 13 12 12 12
31 30 28 26 25 25 26 26 27 27 28 27 27 28 29 29 29 29 29 29 29 28 27 26 26 27 29 31 33 35 38 40 42 44 45 47 48 48 48 48 49 50 52 54 56 58 60 62 63 63 62 62 62 61 59 56 54 51 49 47 44 42 39 36 35 34 33 30 29 30 31 32 31 29 28 26 24 23 21 19 16 14 13 12 12
33 33 33 32 30 28 26 26 27 27 28 28 28 28 28 28 29 29 29 29 30 30 29 28 27 27 27 28 30 33 36 39 42 44 46 47 48 48 48 48 49 50 51 53 55 57 59 61 62 63 64 65 65 64 62 59 57 54 52 49 47 44 42 39 37 37 35 33 32 32 33 33 32 30 28 27 25 24 22 20 18 15 13 13 13
32 33 34 35 34 33 30 29 28 28 28 29 30 30 29 28 29 29 29 30 30 30 30 29 29 28 28 28 28 29 32 36 40 43 46 47 48 48 48 49 49 50 51 52 53 56 59 60 61 62 64 67 67 66 64 62 59 57 54 51 49 46 44 42 41 39 38 37 36 35 34 33 32 31 29 28 27 26 23 21 19 16 14 14 16
32 32 34 35 36 36 35 33 31 30 30 30 30 30 30 30 30 29 30 30 30 30 30 30 30 29 28 29 29 30 31 34 38 41 45 47 48 48 48 48 49 50 52 52 53 55 58 59 60 62 64 66 67 67 66 64 62 59 56 53 51 49 47 45 44 42 41 41 39 37 36 35 34 33 32 30 30 29 25 22 21 18 15 16 19
30 31 33 34 35 37 37 37 35 34 33 32 32 31 31 32 32 31 31 30 31 31 31 31 31 30 29 29 29 31 33 35 37 39 42 45 47 48 48 48 49 50 52 53 55 56 57 58 59 61 63 65 66 66 67 66 64 62 59 56 53 51 50 48 47 46 45 44 42 40 39 37 36 36 35 34 32 30 27 24 23 21 17 17 20
29 30 32 33 34 36 37 38 38 37 36 35 35 34 33 33 33 34 34 33 32 32 32 31 31 31 31 30 29 31 33 36 37 38 40 42 44 45 47 48 49 49 51 53 54 56 57 58 59 60 62 64 65 66 68 68 66 64 62 59 57 55 53 51 50 48 47 46 44 42 41 39 38 38 37 35 33 31 28 26 25 22 19 19 21
28 30 30 32 33 35 36 38 39 40 40 40 39 37 36 35 34 34 35 35 35 35 34 33 32 32 32 32 31 31 33 34 36 38 39 40 42 43 45 47 48 49 51 51 52 54 56 58 59 59 61 64 66 67 69 69 67 65 64 62 60 57 56 54 53 50 49 47 45 43 42 40 38 37 37 36 34 32 29 27 25 23 21 20 21
31 31 32 32 33 34 35 37 38 40 41 43 43 42 41 39 38 36 35 36 36 37 37 37 36 34 34 34 34 34 33 33 33 36 38 39 40 42 43 45 47 49 51 51 51 51 53 57 59 60 61 63 66 67 69 69 68 66 65 63 61 58 57 56 54 52 50 48 46 44 42 39 38 37 37 36 34 32 30 28 26 24 22 21 21
33 34 34 35 35 35 36 37 38 39 41 42 44 45 46 45 43 41 39 38 38 37 38 38 38 38 37 36 36 36 35 33 32 34 36 38 39 40 42 44 46 48 50 52 52 51 53 55 57 60 62 63 66 68 69 69 68 66 66 65 63 60 59 57 55 53 50 48 47 45 42 39 38 36 35 35 34 33 31 29 27 24 23 22 22
35 36 36 36 37 37 38 38 38 39 40 42 44 45 47 48 47 46 45 43 42 41 40 40 40 40 40 39 39 39 37 35 34 33 34 36 37 39 41 43 46 47 49 50 52 53 54 55 56 60 62 64 65 68 69 69 68 67 67 66 65 63 61 58 57 55 51 45 42 41 40 38 37 35 34 34 34 32 31 29 27 25 23 23 23
35 36 37 37 37 38 39 40 40 40 40 42 43 45 47 49 50 49 49 48 47 45 44 43 43 42 42 41 42 42 40 38 37 35 34 34 35 38 40 43 45 47 48 49 51 54 56 57 57 59 62 65 65 66 68 68 68 67 68 67 67 66 64 61 58 56 52 46 40 38 38 38 36 34 33 33 33 32 31 29 28 26 24 25 25
38 38 38 39 39 39 40 41 42 42 42 42 43 44 46 49 50 51 52 52 51 50 49 48 47 46 44 43 43 44 42 40 39 38 36 34 34 36 40 42 45 47 48 49 50 53 56 58 59 60 62 64 65 64 64 66 67 67 68 68 68 67 65 62 59 54 50 47 44 41 39 38 37 36 35 35 34 33 32 31 30 28 27 26 25
40 41 41 41 42 41 42 43 44 45 46 46 46 45 46 48 50 51 53 54 54 54 53 52 51 50 48 46 45 45 44 42 40 40 39 35 34 36 39 42 45 47 48 48 49 52 55 57 58 60 61 63 63 62 61 63 64 66 68 68 68 68 66 63 58 53 49 48 46 44 41 39 38 37 36 36 35 34 34 33 31 29 27 26 25
43 44 45 45 45 45 45 46 47 47 48 49 50 50 49 49 50 51 53 55 56 57 57 56 55 54 52 50 48 47 46 44 41 40 40 38 35 36 39 41 44 46 47 47 48 50 53 55 56 59 60 61 61 60 59 60 61 64 66 67 68 69 68 64 59 54 51 49 47 43 40 38 37 36 36 36 35 35 35 33 30 28 26 25 24
47 47 48 48 49 49 49 50 50 51 51 52 52 53 53 53 53 54 54 55 57 58 59 59 59 58 56 54 51 49 48 46 42 40 41 39 36 36 38 40 43 46 46 48 48 49 51 53 55 57 58 58 58 57 58 58 60 62 64 66 68 69 69 66 61 58 54 51 48 44 41 38 37 36 36 35 34 35 35 32 30 28 26 25 23
50 51 52 53 53 54 54 54 54 54 55 55 55 56 56 56 57 57 57 57 58 59 60 61 62 62 60 57 55 52 50 48 44 42 41 40 38 36 37 40 44 45 45 46 48 49 50 52 55 57 57 56 55 55 56 57 58 60 62 66 68 69 67 64 61 59 56 52 49 45 41 39 38 38 37 36 36 37 36 32 29 28 26 25 23
53 54 56 57 58 58 58 59 59 59 59 59 59 59 59 58 59 60 61 61 61 62 62 62 64 65 64 61 58 55 52 50 46 43 42 41 39 37 37 41 44 44 44 45 48 50 50 51 54 54 54 53 53 53 53 54 56 58 61 64 65 64 63 62 61 58 54 51 48 44 42 41 41 40 40 40 40 38 34 30 29 28 26 25 24
56 57 59 60 61 62 62 62 63 63 63 63 62 62 62 62 62 62 63 64 64 65 65 65 64 66 66 64 62 58 54 51 48 45 42 42 41 38 38 41 43 43 44 46 48 50 50 51 52 51 50 51 51 51 51 52 53 56 58 59 60 61 60 60 59 57 54 51 48 45 44 44 43 43 42 42 40 37 33 32 30 28 26 25 24
58 60 62 63 64 64 63 63 64 65 65 64 63 64 66 65 64 64 64 65 66 66 67 66 66 66 67 66 65 61 56 53 50 47 44 42 41 40 39 39 39 41 44 47 49 50 50 49 49 48 47 47 48 49 49 49 51 54 55 56 58 59 58 57 56 56 54 51 49 47 46 45 44 44 44 42 38 35 34 33 30 27 26 25 24
61 63 65 66 67 66 65 65 65 65 64 63 62 64 66 66 65 65 65 65 65 66 67 67 66 66 67 67 67 65 60 55 51 49 46 43 41 41 39 38 37 38 43 46 48 50 50 47 45 43 42 43 45 46 46 48 48 50 51 52 54 56 56 56 55 54 52 51 50 49 46 45 45 45 43 39 36 35 34 32 29 28 27 26 24
63 65 66 67 67 67 67 67 66 64 63 63 63 65 66 65 64 64 63 63 64 64 65 65 65 65 66 66 66 66 63 58 52 49 47 44 42 41 40 37 35 36 41 46 48 49 49 46 41 37 36 38 41 42 44 45 45 45 47 50 51 55 57 57 55 54 53 51 49 48 46 45 44 43 41 37 36 36 34 32 31 29 28 26 24
60 62 63 64 65 65 65 65 65 63 63 63 62 62 62 60 60 60 58 58 59 60 61 61 60 60 62 65 66 65 63 59 54 50 49 46 43 41 40 37 35 34 38 43 46 48 47 44 40 36 34 36 38 40 42 42 42 44 47 49 50 55 59 59 56 54 52 49 47 46 45 45 45 43 40 37 37 36 35 33 31 29 26 23 22
56 59 60 60 61 60 60 60 60 60 59 58 57 57 55 51 50 52 51 49 50 53 53 49 46 46 49 56 60 61 61 59 55 50 49 48 45 40 38 37 35 34 36 39 44 47 46 43 39 36 35 35 35 38 40 40 42 46 47 47 49 53 56 57 56 54 50 47 46 45 45 46 46 43 40 39 38 37 35 32 29 26 24 22 20
54 57 58 57 57 56 54 54 53 52 51 50 48 48 48 44 43 46 46 41 40 43 42 39 38 37 37 40 43 45 50 56 57 52 48 47 44 40 38 37 34 34 35 36 40 44 44 42 39 36 35 35 35 37 39 40 43 47 46 45 47 50 51 52 53 51 48 47 46 46 47 49 46 42 41 40 39 36 33 29 27 24 22 20 19
52 53 53 51 50 48 45 44 42 41 41 41 40 39 40 39 40 44 46 42 39 40 40 41 42 40 36 36 36 35 39 48 53 50 46 45 43 40 38 34 30 30 31 32 37 42 42 41 40 39 38 38 38 39 40 40 44 47 47 45 47 49 50 51 51 50 49 48 47 48 49 47 43 41 41 40 36 33 30 27 25 23 21 19 19
50 50 47 43 41 40 40 40 39 39 39 39 40 40 39 37 37 41 44 43 41 40 41 44 45 43 40 40 39 37 38 40 40 39 40 41 41 40 38 33 27 25 26 29 36 42 43 42 42 41 41 40 41 42 42 42 44 45 45 46 48 50 50 49 50 50 49 47 47 47 46 42 40 41 41 37 34 31 28 26 24 22 20 20 20
48 47 43 40 39 39 41 41 40 40 40 39 40 41 42 40 38 38 39 40 41 39 39 41 44 44 45 46 45 43 42 40 37 35 35 35 35 37 37 34 29 24 22 28 37 42 44 45 44 43 43 42 43 43 43 43 45 45 45 46 49 50 49 48 48 48 47 46 46 44 40 40 41 41 39 35 32 30 27 24 23 21 20 20 21
44 44 41 40 39 39 40 40 39 39 40 39 39 39 40 41 40 36 34 35 36 36 36 37 38 39 40 42 45 45 44 42 38 36 35 33 31 32 32 32 29 23 21 30 39 42 45 47 46 45 44 43 43 43 43 44 46 46 47 48 49 48 48 47 44 44 44 43 42 41 40 41 41 38 35 33 30 28 26 24 22 20 20 20 21
42 43 42 40 39 38 38 38 38 38 37 37 37 37 36 38 39 38 35 33 33 33 35 36 36 36 34 34 36 39 41 41 38 37 36 34 32 31 29 28 27 22 23 32 40 43 46 48 47 46 46 44 43 44 45 46 48 48 48 49 49 47 46 42 39 39 41 40 41 42 43 42 40 36 34 32 29 26 25 23 21 20 20 20 21
40 41 40 39 38 38 37 36 36 36 35 35 35 36 36 36 37 38 38 36 35 36 37 36 34 34 35 36 36 36 36 37 36 36 36 34 33 31 29 27 25 23 26 35 43 45 46 48 46 45 44 42 42 44 45 47 50 51 50 49 48 47 43 40 38 39 40 40 41 42 42 41 39 37 35 32 29 26 24 22 21 20 20 20 21
38 39 39 39 38 37 36 35 34 34 34 34 34 34 35 36 36 37 37 37 37 37 37 36 32 28 28 32 36 37 34 33 32 32 33 34 33 30 28 27 27 27 29 36 43 46 46 47 46 43 42 42 42 44 46 47 49 51 50 49 48 46 43 41 40 41 41 42 43 42 41 41 39 37 34 31 28 25 24 22 21 20 20 20 20
36 37 38 37 37 36 35 34 34 34 34 34 34 34 34 35 35 36 35 35 35 34 34 34 32 28 26 26 28 31 31 30 30 29 28 30 31 29 27 29 31 32 32 36 43 46 46 46 46 43 42 42 43 44 45 46 47 48 49 50 49 47 45 43 42 42 43 44 44 43 43 41 38 35 32 29 27 25 23 22 21 20 20 19 18
35 36 37 36 36 35 34 34 35 35 34 33 33 33 32 32 33 33 33 32 32 33 34 34 33 32 32 28 24 24 25 25 26 26 26 28 30 30 30 30 32 34 34 35 39 43 44 44 44 43 43 43 43 43 44 45 46 47 49 50 51 49 47 45 44 44 44 43 42 42 41 38 35 33 31 28 27 25 23 21 21 20 19 18 17
34 35 35 35 34 34 33 33 34 34 33 33 32 31 31 31 31 31 31 31 31 31 32 32 32 33 32 27 22 20 20 20 21 22 23 26 29 32 32 31 31 34 34 33 35 40 42 41 41 42 43 43 43 42 43 44 46 47 49 51 50 49 48 47 45 45 44 43 41 40 38 36 33 31 29 26 25 23 22 21 20 19 18 17 17
34 34 34 33 33 33 33 33 34 34 34 34 33 31 30 30 30 29 29 29 29 29 29 30 30 29 25 22 20 19 18 18 19 19 20 22 26 31 33 30 29 32 34 31 32 37 39 39 40 42 42 42 41 41 42 43 45 47 49 50 50 49 50 49 47 46 44 42 41 39 37 34 31 29 26 24 23 22 21 20 19 18 17 16 16
32 34 33 32 32 32 32 33 33 33 33 33 33 33 32 31 30 30 28 28 28 28 27 27 29 27 24 22 21 20 19 19 19 18 17 18 22 28 33 31 28 30 31 30 30 34 38 40 40 41 41 41 40 40 41 42 43 45 48 49 50 51 51 49 47 45 43 41 40 38 35 32 29 27 25 24 22 21 19 18 18 17 16 15 15
31 32 32 31 31 32 32 32 32 32 32 32 32 33 33 33 32 31 29 27 27 27 26 26 27 27 25 24 22 20 20 20 19 18 17 17 18 24 31 31 27 27 29 30 29 31 36 40 41 41 41 40 39 39 40 41 42 43 46 48 50 50 49 46 44 43 41 40 38 35 32 30 27 25 24 22 21 19 18 17 16 16 15 15 15
29 31 31 31 31 31 31 31 30 30 31 32 32 31 32 32 31 30 28 27 26 25 25 26 26 25 23 22 20 20 20 20 20 19 17 16 17 21 26 30 28 27 29 30 29 29 34 38 40 41 41 39 37 37 38 40 41 42 44 47 49 47 45 43 42 40 39 38 35 32 30 27 25 23 22 21 20 19 17 16 15 15 15 14 14
28 28 29 29 29 29 29 29 29 29 29 30 30 30 30 29 29 28 28 26 25 24 24 24 24 23 22 20 19 18 18 18 18 18 17 17 17 18 23 28 29 28 28 28 27 28 31 34 36 37 37 36 34 34 34 34 36 38 41 44 45 44 43 42 40 39 37 35 32 29 27 25 23 22 21 20 19 17 16 15 15 15 14 14 14
25 26 27 27 27 27 28 28 28 27 26 27 27 28 27 27 27 26 26 25 24 24 23 22 21 21 21 19 17 16 15 14 14 15 15 16 17 18 22 26 28 28 27 26 25 25 26 28 31 33 34 33 32 31 30 30 31 33 35 38 41 41 41 40 40 39 36 33 30 28 26 24 22 21 20 18 17 16 15 15 14 14 13 14 14
24 24 25 27 27 27 27 27 26 25 24 23 24 25 25 24 23 23 24 24 24 23 22 20 18 19 19 18 16 14 13 12 11 11 12 14 16 17 20 23 25 25 25 24 23 22 21 23 26 29 31 32 31 29 28 28 29 29 29 32 36 38 38 38 38 35 32 29 27 25 23 22 21 19 18 17 16 16 15 14 14 13 13 14 14
22 23 24 26 27 27 27 26 26 25 24 23 22 22 22 21 20 19 19 19 20 19 18 17 17 17 16 15 13 12 11 10 9 8 9 12 14 16 18 20 21 22 21 20 19 18 19 20 23 25 28 29 28 27 26 26 25 24 26 28 31 33 34 33 31 29 26 24 23 22 21 20 19 17 17 16 15 15 14 13 13 13 13 14 15
21 22 23 25 26 26 27 26 26 25 25 24 22 22 21 20 19 18 16 16 15 15 14 14 14 13 12 11 10 10 9 8 6 6 8 11 14 15 16 17 18 19 18 17 16 16 17 20 22 24 26 26 26 25 24 23 23 24 26 28 30 30 30 29 26 24 23 22 21 20 19 18 17 16 16 15 15 14 13 13 13 13 13 14 15
21 21 22 24 25 26 26 26 26 26 25 24 23 22 21 20 20 19 18 17 16 14 13 13 12 11 10 9 8 7 6 5 4 4 7 11 12 13 13 14 15 16 15 14 15 16 18 20 22 22 23 23 23 22 22 25 27 29 30 30 29 28 27 25 24 23 22 20 19 18 17 16 16 16 15 14 13 13 13 12 12 13 13 15 15
21 22 22 23 24 25 25 26 26 26 25 25 24 23 22 20 20 20 20 19 18 17 15 14 12 11 10 8 6 4 3 1 2 4 7 9 10 10 10 11 12 12 13 14 15 17 19 19 20 20 20 21 23 25 29 32 33 33 31 29 27 25 23 22 21 20 19 18 17 17 16 15 15 14 13 13 12 12 12 11 12 13 14 14 15
21 21 22 23 24 25 25 26 26 26 26 25 25 24 23 22 21 20 20 20 19 18 17 16 15 12 10 8 6 4 2 2 2 3 5 7 7 7 7 8 9 11 13 15 16 17 18 18 19 21 23 26 29 32 33 33 31 29 27 25 23 22 21 20 19 18 17 16 15 15 14 14 13 12 12 11 11 12 12 12 13 14 13 13 14
22 22 22 23 24 25 25 26 26 26 27 26 26 26 25 24 23 21 20 20 20 19 18 17 16 14 12 10 8 6 5 4 4 5 5 5 5 6 6 7 9 10 13 16 18 19 20 23 25 28 30 32 33 32 31 28 26 24 22 21 20 19 18 17 16 15 15 14 13 13 12 11 11 10 10 10 11 12 12 13 13 13 12 13 15
Wind_Direction
1 2 1 360 359 359 0 0 1 3 4 4 2 357 348 337 324 311 299 291 288 287 288 287 287 286 285 282 279 275 271 268 264 259 255 252 249 247 244 241 239 238 237 236 235 233 233 232 232 231 231 230 230 230 230 229 229 229 229 230 231 231 232 229 227 230 229 223 223 221 219 221 224 225 227 229 231 232 234 235 238 248 261 274 288
1 360 358 356 354 353 353 353 353 353 354 357 360 0 358 352 342 330 316 304 295 289 287 287 286 284 283 281 280 278 274 271 267 263 259 256 253 250 247 244 241 239 238 237 236 234 234 233 233 232 231 231 232 232 231 229 228 228 228 229 229 230 231 230 230 232 230 225 223 220 218 220 222 225 227 227 229 230 231 231 232 238 249 262 277
2 359 356 355 353 350 348 346 346 346 347 349 352 355 356 355 351 344 335 324 311 298 290 287 285 284 282 279 278 276 274 272 269 266 263 259 256 253 250 247 244 241 240 239 237 236 235 234 234 233 232 232 232 232 231 230 229 229 229 229 229 230 230 230 231 232 231 227 224 222 220 220 221 223 224 225 225 227 228 229 229 234 245 259 274
357 356 355 353 351 349 347 344 342 341 341 344 346 347 350 352 351 349 344 339 330 317 302 291 284 281 280 279 278 276 274 272 270 267 265 262 260 257 254 250 247 245 243 242 240 239 237 236 236 235 233 233 233 232 231 230 229 229 230 230 229 229 229 229 229 231 231 229 227 225 224 223 223 223 224 224 225 226 229 229 229 233 244 257 270
351 352 351 350 348 346 345 344 342 340 339 338 339 340 341 344 347 348 347 344 341 334 323 308 294 285 279 278 278 278 277 275 272 269 267 264 262 260 258 255 251 249 246 245 243 242 241 239 238 237 235 235 234 233 232 231 229 229 230 229 229 228 227 226 227 229 230 230 229 227 225 225 224 224 224 225 226 227 228 229 230 234 244 255 264
347 347 348 348 348 346 344 343 342 341 340 337 336 336 336 337 339 342 345 345 343 340 335 326 313 300 290 283 279 278 278 276 274 272 269 267 264 262 259 257 255 252 250 248 246 244 243 243 241 239 237 237 237 236 234 232 230 230 229 229 228 227 225 223 223 226 228 228 228 227 226 225 225 225 225 225 227 228 229 231 232 234 241 252 260
344 344 344 344 345 345 345 344 343 341 340 339 337 335 334 334 333 334 337 339 341 341 339 335 327 316 304 294 285 280 275 273 273 272 270 268 266 264 261 259 256 255 253 252 249 247 246 244 243 241 240 240 239 238 236 234 232 231 231 230 229 227 225 223 223 224 225 225 225 226 226 225 225 226 226 225 226 228 228 232 236 236 241 253 260
340 340 340 340 340 340 341 342 343 342 340 337 335 333 333 333 333 332 331 331 334 336 337 337 334 327 317 305 295 286 278 273 270 269 269 269 267 265 263 262 260 257 256 254 252 249 248 246 244 243 243 242 242 241 240 238 235 232 231 231 230 228 226 224 223 223 223 224 224 224 225 225 224 225 226 224 225 228 228 232 238 239 243 254 263
337 337 336 336 335 335 335 335 336 338 338 336 334 333 332 332 332 333 332 330 328 329 331 333 334 332 326 315 304 293 284 277 272 269 269 269 268 267 265 263 261 259 258 256 254 252 250 249 247 245 244 244 243 242 242 241 238 236 234 232 230 229 228 227 225 223 222 222 222 222 223 223 224 226 227 226 227 230 231 232 237 240 242 252 261
334 333 333 333 331 331 330 330 330 331 332 333 333 332 331 330 330 331 333 332 330 327 326 326 328 329 327 321 312 300 292 285 279 274 271 269 268 268 266 263 261 259 258 258 256 255 253 251 249 247 246 244 243 241 241 240 239 239 238 237 235 232 230 229 228 226 224 224 223 222 222 222 224 227 230 230 230 231 231 232 237 240 243 249 255
327 327 327 327 327 326 326 326 326 327 328 329 329 329 330 329 329 329 330 331 331 329 327 325 323 323 323 322 316 306 300 295 287 280 275 271 269 267 265 264 262 260 258 258 257 257 256 255 253 250 247 245 243 241 240 239 238 238 238 238 238 238 236 234 231 228 227 226 226 226 225 224 224 226 229 231 230 231 232 234 236 240 244 247 249
320 320 320 321 321 321 321 321 322 323 324 325 325 325 326 326 326 327 327 328 328 328 328 327 324 321 319 318 316 311 307 301 292 284 279 275 271 268 265 264 262 260 260 259 258 257 257 257 256 253 249 246 244 241 240 239 237 236 236 236 236 237 238 238 237 235 233 231 229 229 228 227 226 227 229 231 232 233 234 235 237 240 245 246 244
315 315 315 316 316 317 317 317 318 319 320 321 321 321 321 321 322 323 323 323 324 324 325 325 324 323 320 316 314 312 310 306 298 288 282 277 273 270 266 263 260 260 260 259 259 257 256 256 256 255 252 248 244 242 240 238 236 235 234 234 234 234 234 236 237 239 240 240 237 234 231 229 229 230 230 232 233 234 235 237 239 241 245 244 239
311 311 312 312 313 313 312 312 313 314 315 316 317 317 318 318 318 319 320 319 319 318 319 321 321 322 321 317 314 310 309 309 305 295 285 280 276 272 268 265 261 259 259 259 258 258 257 256 255 255 254 250 245 242 240 238 235 234 233 233 233 232 231 231 232 234 236 239 240 239 236 233 232 232 233 233 234 235 237 239 242 244 243 239 234
310 310 310 310 310 309 309 309 309 310 311 312 312 313 314 314 314 315 316 315 315 314 314 315 315 316 316 317 314 310 307 308 308 302 290 282 278 274 269 265 261 259 258 258 258 257 257 257 256 255 255 253 250 246 243 239 236 234 233 232 232 232 231 230 230 230 230 230 232 234 235 234 233 233 232 232 233 234 236 237 240 240 236 233 232
311 311 310 309 308 307 307 306 306 307 308 308 308 309 309 309 310 311 311 311 311 311 310 310 310 310 311 312 312 310 307 307 307 305 297 285 278 275 269 263 260 258 256 256 257 256 255 256 256 255 254 254 252 249 246 243 238 235 234 233 233 232 232 230 229 229 228 227 227 227 226 227 229 229 229 230 231 232 232 233 235 235 232 231 231
311 311 309 307 307 306 305 305 304 304 304 304 304 304 304 304 304 305 306 306 306 306 306 306 306 306 306 307 307 307 307 306 305 304 302 293 280 272 268 263 260 259 257 256 256 256 256 255 255 255 254 254 253 250 247 244 240 236 234 233 232 232 232 230 228 226 225 225 226 227 225 224 224 226 227 229 230 231 232 233 235 234 231 229 228
311 309 307 307 306 305 304 303 302 302 301 301 301 301 300 300 300 300 301 301 301 302 302 302 302 302 302 302 303 304 303 304 304 302 301 298 286 272 267 264 261 260 259 257 256 256 257 255 254 253 253 253 252 250 247 244 240 236 234 233 231 231 231 229 225 223 222 222 224 225 226 224 224 226 228 229 230 232 232 234 235 232 229 228 227
310 307 306 305 304 303 302 301 300 300 299 298 298 298 298 297 297 296 296 297 297 298 298 299 298 298 298 299 300 300 299 300 302 300 298 298 291 277 266 262 260 258 257 257 256 256 257 256 253 252 252 252 252 250 247 244 240 236 234 232 231 230 230 228 224 222 221 221 222 222 223 224 225 227 228 229 231 232 233 233 232 230 228 229 228
307 306 304 303 302 301 300 299 298 297 296 295 294 294 294 294 294 293 293 293 294 294 294 295 295 294 295 295 296 296 296 296 298 298 295 293 292 283 269 260 258 257 255 254 254 255 255 255 253 251 250 250 250 248 246 244 241 236 233 233 233 232 230 226 224 223 224 223 222 221 222 225 227 227 227 226 228 233 235 232 230 228 228 229 230
304 303 302 301 299 299 297 296 295 294 293 292 291 290 289 289 290 290 290 290 290 290 290 291 291 291 292 292 292 292 293 293 294 295 293 289 288 285 273 262 258 256 254 253 252 253 253 253 252 251 250 248 247 245 243 242 240 237 235 235 237 235 230 227 224 224 224 224 222 221 222 225 227 226 225 225 228 233 234 230 227 227 227 229 232
302 301 300 299 298 297 296 295 294 293 292 291 290 288 287 286 285 285 285 286 286 286 287 287 287 288 288 289 289 289 290 290 290 291 290 286 284 283 278 269 261 256 254 253 251 252 252 252 252 252 250 248 246 244 242 240 238 237 236 236 235 233 229 226 225 223 221 220 220 221 224 226 226 225 224 225 228 230 229 226 225 225 226 228 232
301 300 299 298 297 296 295 294 293 292 291 290 289 288 286 285 284 283 282 283 283 283 283 283 284 285 285 286 287 286 287 287 287 287 288 285 281 280 280 276 266 257 253 253 251 251 252 251 251 252 251 249 247 245 241 236 233 233 234 233 230 229 227 224 222 221 219 218 219 222 225 226 224 223 223 225 228 227 225 225 224 223 225 228 232
301 300 299 298 297 295 294 293 292 291 290 289 289 288 286 286 285 284 282 282 282 281 281 281 282 282 282 282 284 285 284 285 285 285 285 284 280 277 277 277 269 257 251 252 252 251 251 251 251 251 251 250 248 246 241 235 230 228 229 229 226 225 224 221 220 219 217 218 220 223 224 224 223 223 225 226 227 224 223 224 223 223 225 228 232
303 301 300 299 297 296 295 293 291 291 290 289 289 288 287 287 287 286 285 283 282 280 280 280 280 281 281 280 280 281 283 283 283 283 282 282 279 274 273 274 270 258 250 249 250 250 250 251 251 251 251 250 246 242 238 233 226 221 222 225 223 222 221 219 218 217 217 219 222 223 223 223 223 224 225 225 223 221 221 221 221 222 225 227 232
305 303 302 300 298 297 296 294 293 292 291 291 291 290 290 290 288 288 287 285 283 282 282 281 281 281 280 279 278 278 280 280 280 280 280 279 278 273 270 271 271 262 250 247 248 249 249 250 250 248 246 244 239 234 232 228 220 216 219 222 221 221 220 218 215 216 219 222 223 223 222 221 222 223 223 221 219 218 218 218 219 221 224 228 233
305 304 302 301 299 299 299 297 297 296 296 295 294 292 291 290 287 287 286 284 283 284 283 280 278 277 278 279 279 279 279 279 278 277 276 277 277 274 269 269 271 264 252 244 245 247 247 248 248 247 244 241 235 232 231 225 215 213 216 218 219 221 221 218 217 220 223 224 223 221 220 221 222 221 219 216 215 215 215 216 218 221 223 227 234
308 306 305 304 302 302 302 301 300 299 298 296 294 291 290 287 283 284 284 280 278 279 277 273 271 270 271 274 277 277 278 277 276 274 273 275 277 274 268 266 267 264 255 244 239 240 242 242 242 240 237 232 225 220 221 218 212 211 211 213 219 222 220 218 219 221 222 221 218 217 218 220 219 217 214 213 212 211 212 214 218 222 225 228 235
311 308 307 305 303 302 301 299 297 295 293 291 288 284 283 281 280 283 285 282 277 275 273 271 271 269 268 269 269 269 271 274 276 275 273 272 273 272 266 262 263 265 261 247 235 232 232 233 232 229 226 221 214 210 211 210 209 210 209 210 215 217 215 214 215 215 215 214 215 216 218 218 215 212 211 210 208 208 211 214 217 222 226 230 235
310 307 305 300 298 298 296 294 293 291 289 288 286 284 282 278 276 278 281 283 283 280 274 270 269 268 267 266 265 263 264 269 274 275 273 271 270 268 263 259 259 262 259 246 234 229 228 226 226 224 222 218 211 208 207 206 206 206 205 205 209 211 210 209 210 210 210 212 215 217 217 215 212 209 209 207 205 207 210 213 216 222 227 231 236
306 304 301 297 295 295 294 292 292 290 289 287 287 286 286 283 280 276 276 279 284 282 275 271 269 267 265 264 264 264 264 266 267 267 268 268 266 264 262 259 259 258 247 235 231 229 227 226 224 221 220 218 214 209 206 204 204 204 200 200 204 207 206 204 205 208 210 211 213 214 213 212 210 208 206 204 204 206 209 212 217 222 227 232 237
303 302 300 298 297 295 293 292 291 290 289 288 286 286 286 287 286 283 278 278 281 280 275 271 270 270 267 265 264 264 264 264 263 262 261 259 257 258 258 257 257 254 236 227 228 227 225 226 224 220 219 218 214 209 203 201 203 202 197 195 198 200 202 204 206 209 211 211 210 209 208 207 205 203 202 203 204 207 210 214 218 222 227 233 236
304 303 302 301 299 296 294 293 292 290 289 288 286 285 284 285 286 287 285 283 281 278 273 267 264 264 264 264 265 265 264 263 261 259 257 254 252 253 252 251 252 247 227 222 225 225 224 225 224 223 222 218 212 206 201 201 203 203 200 199 199 199 202 206 209 210 210 208 206 204 203 201 199 198 200 203 205 208 211 216 219 223 228 233 236
305 305 304 304 302 298 295 293 291 290 288 287 285 284 283 282 283 286 288 287 285 284 284 280 273 266 261 258 260 264 266 265 261 258 255 252 250 250 250 249 247 239 224 220 223 224 224 223 223 222 220 214 208 204 201 201 203 205 204 204 203 202 202 204 207 206 204 202 202 201 200 197 197 199 201 202 204 207 210 215 219 223 228 233 237
309 308 308 309 307 302 298 295 292 289 287 286 285 284 283 283 283 283 284 285 285 287 290 293 293 290 280 268 261 261 263 264 262 258 253 249 247 246 245 242 238 230 222 219 221 222 223 223 222 218 212 208 206 204 202 201 203 204 203 203 202 199 198 199 203 203 201 200 201 200 198 198 199 199 200 201 203 206 209 214 219 223 228 234 239
311 311 310 311 311 307 302 298 296 293 289 288 287 286 285 284 283 282 282 282 283 285 288 293 298 302 299 289 274 265 263 262 259 256 252 247 243 236 231 231 231 227 221 218 217 219 222 224 223 217 211 209 208 207 204 203 203 203 203 203 203 199 197 199 204 203 200 200 200 198 197 198 197 197 198 200 202 205 208 212 217 222 228 235 242
315 314 314 314 313 308 302 299 298 296 291 289 288 287 286 285 283 282 283 282 283 284 287 289 291 290 289 289 284 274 266 260 257 254 251 246 239 229 224 228 230 228 225 220 215 214 218 221 220 216 213 211 210 209 208 207 205 203 203 205 206 204 204 207 210 206 201 200 200 197 195 195 194 195 197 199 201 204 207 210 215 222 229 237 245
319 317 316 317 314 308 301 299 299 297 294 291 289 287 286 286 285 284 284 283 284 285 285 286 287 288 286 284 283 278 270 263 261 256 248 244 237 225 221 227 231 229 227 224 215 212 213 215 214 214 214 213 212 212 211 209 206 204 204 206 208 208 208 210 210 206 202 201 200 197 195 194 194 196 198 199 202 205 206 209 216 223 230 239 248
322 319 318 319 318 313 308 305 303 301 298 296 295 292 288 286 285 285 284 284 284 285 286 286 289 293 292 287 284 280 272 267 268 261 250 246 238 225 219 223 230 229 229 227 220 214 212 210 209 211 213 213 212 212 211 209 207 205 206 208 208 207 207 207 205 203 203 202 199 196 194 195 195 196 197 200 203 204 207 211 218 225 233 243 252
324 322 322 323 322 320 317 314 310 308 306 304 303 301 297 293 290 288 286 285 284 285 285 284 286 289 291 288 285 282 274 272 273 268 259 253 243 228 219 220 228 231 230 229 225 218 210 207 208 211 212 211 210 211 212 212 211 209 209 209 208 207 207 206 204 202 202 200 197 195 194 194 194 195 197 200 202 205 209 215 222 229 238 246 255
329 328 327 328 327 325 322 319 317 317 316 314 311 308 305 302 300 295 289 284 282 284 286 286 286 289 290 286 283 282 279 275 272 269 263 258 250 236 225 223 227 231 230 230 229 219 210 208 211 212 210 209 209 211 213 214 213 212 210 209 208 208 207 204 202 202 200 196 194 193 192 192 194 195 198 201 203 206 212 218 225 235 243 250 259
334 332 330 330 329 326 323 321 322 323 322 320 318 316 314 311 308 303 297 292 289 289 292 291 291 293 294 289 284 284 283 276 271 268 263 259 256 247 233 225 225 228 230 233 233 224 215 212 212 211 210 209 210 214 216 215 214 213 211 208 207 207 205 202 201 200 196 192 190 191 190 192 193 195 198 202 205 210 216 223 230 239 248 256 265
338 336 333 333 334 333 331 330 329 327 325 325 325 324 321 318 314 310 305 300 294 292 293 293 293 295 297 296 292 289 286 280 273 267 260 256 255 246 229 221 221 224 228 233 234 229 222 217 214 213 213 212 214 219 221 219 217 216 214 211 209 207 204 200 196 193 190 188 188 189 190 191 193 195 199 205 209 214 221 228 235 244 252 261 270
341 340 340 341 343 343 341 339 335 331 330 331 332 332 329 325 321 319 315 310 304 300 300 301 300 300 302 304 302 297 291 284 276 267 259 254 252 242 227 220 220 222 226 232 235 232 227 221 217 214 213 212 215 219 222 222 222 219 215 212 209 206 201 196 191 189 187 187 187 188 189 191 194 198 203 208 213 219 226 232 240 249 258 267 275
348 349 349 350 351 350 348 347 344 342 342 342 341 339 337 333 329 326 323 319 316 313 311 309 306 303 304 306 305 302 298 291 282 273 264 257 252 243 231 224 222 223 228 234 237 233 226 222 218 215 212 212 212 213 216 219 219 217 214 210 205 200 195 191 188 186 185 186 186 188 190 193 196 201 207 212 218 225 230 236 245 254 261 271 279
356 358 359 358 357 356 355 354 352 351 351 350 348 347 345 341 336 331 325 320 317 315 312 309 307 307 310 312 310 308 306 301 293 281 264 250 243 238 231 225 223 224 228 231 231 226 221 219 217 214 213 211 207 206 210 212 208 205 203 200 194 188 185 183 182 182 183 185 187 189 192 195 199 205 212 217 223 229 233 240 250 258 266 275 281
5 8 8 6 5 4 2 2 1 360 358 357 356 355 355 353 349 345 340 335 330 326 321 319 318 318 320 322 318 313 309 304 296 273 245 232 227 226 226 223 221 222 224 225 223 218 213 212 211 209 207 204 201 200 200 196 186 181 180 179 177 175 175 175 177 180 182 185 189 191 195 200 204 210 217 222 227 233 238 244 253 262 270 276 279
12 15 16 14 13 12 10 9 9 8 6 4 3 2 2 3 2 360 357 354 351 347 343 339 337 333 331 329 326 322 316 307 283 244 225 218 213 213 215 216 215 217 217 213 210 207 205 203 202 200 198 196 192 187 179 169 163 162 164 166 169 171 172 174 178 180 182 186 191 194 199 206 210 215 222 226 230 237 242 247 256 266 271 275 279
18 21 22 22 21 20 18 17 16 14 13 12 11 10 11 11 12 12 11 8 6 4 1 358 354 350 348 345 341 337 334 309 246 219 210 205 200 200 203 204 203 203 202 198 197 197 195 192 190 187 184 178 170 162 157 156 156 159 163 165 167 170 172 174 178 181 184 189 194 198 203 209 213 218 225 228 232 240 246 251 260 268 271 275 281
22 25 26 26 27 26 26 25 24 22 21 20 19 17 16 16 17 20 21 20 19 18 16 14 11 8 7 9 10 15 50 105 152 186 192 190 184 184 188 189 187 187 187 183 181 179 175 171 168 165 160 155 152 151 152 154 157 160 163 164 166 168 172 175 179 183 187 192 197 201 206 209 214 221 227 231 237 245 251 255 262 267 270 276 285
25 29 31 32 32 32 32 32 31 30 28 26 25 23 22 21 21 23 25 27 29 29 27 26 26 25 27 31 36 44 63 87 106 118 126 130 130 134 143 149 152 157 160 158 155 152 150 147 147 147 146 146 147 149 151 153 156 158 160 163 166 169 172 176 180 185 189 193 198 202 205 211 218 226 234 240 243 246 250 256 262 268 276 283 290